Retour au catalogue

STARLINK-32242

ActifCommunicationsVLEO
NORAD 60429·PAYLOAD·🇺🇸 United States

Lancé Aug 12, 2024 depuis Cape Canaveral Space Force Station

Loading…

Prochains Passages (prochaines 24 heures)

TLE

FraisSource: CelesTrak SupGP

Époque: Sep 14, 2026, 21:03 UTC

1 60429C 24144E   26257.87756944  .00063221  00000+0  18689-2 0  2572
2 60429  53.1588  56.0386 0000869  64.9823  78.4143 15.34342482    10

Suivez STARLINK-32242 en temps réel avec AllMySat

Download on the App Store